RH
13 10 14 18 19 15 11 7 6 6 7 6 4 4 5 5 5 5 5 6 6 9 9 13 35 72 87 92 92 95 97 96 98 97 97 97 98 97 98 99 100 99 100
13 16 21 22 20 17 12 7 6 8 10 8 5 5 6 7 7 6 6 7 7 8 8 9 9 11 32 78 92 93 95 96 96 96 96 96 96 97 98 98 98 98 98
16 20 21 24 25 19 12 7 7 10 11 10 6 6 8 10 11 9 8 8 8 8 8 8 9 10 9 12 35 77 93 96 96 97 96 96 96 97 97 99 100 100 99
20 22 23 26 30 24 13 8 9 11 11 10 7 7 9 13 15 15 13 10 9 9 8 8 8 7 8 10 10 11 23 54 74 84 91 90 90 94 96 96 98 96 96
22 31 33 33 34 26 14 8 9 12 11 10 9 10 12 14 18 22 21 17 13 11 10 9 9 9 8 7 8 8 8 10 14 25 32 47 54 61 69 72 94 97 94
31 40 42 39 36 26 12 9 11 12 12 13 14 16 17 19 21 24 25 26 21 16 13 12 10 10 11 10 9 9 8 9 14 29 45 38 37 52 64 77 38 56 92
45 54 45 43 38 25 11 12 14 16 17 18 18 19 20 22 24 26 27 28 29 26 20 18 15 13 12 11 11 10 10 9 11 26 32 43 34 33 36 51 82 40 54
82 48 46 45 41 25 15 18 19 19 19 19 20 22 22 22 26 29 30 31 32 33 33 24 23 18 15 13 12 11 11 11 12 12 14 17 21 24 26 31 62 95 55
72 44 47 46 44 33 25 26 28 22 18 16 17 20 21 21 23 29 33 36 36 38 53 60 36 28 18 17 16 16 16 16 17 15 13 13 13 12 11 12 15 30 70
42 44 47 47 49 42 38 36 42 36 25 16 14 15 15 22 24 29 37 40 40 49 44 70 58 44 23 15 19 21 18 22 21 18 14 12 11 10 10 10 12 16 17
44 47 48 52 51 47 43 44 46 38 31 23 17 15 16 20 28 28 37 46 47 44 56 72 77 64 60 23 22 22 25 30 26 24 20 18 15 14 14 14 14 15 16
46 48 51 53 51 43 38 42 46 41 36 32 28 19 17 22 29 34 44 51 52 47 48 48 47 40 38 26 22 28 29 30 30 29 27 28 30 31 29 24 21 21 20
48 51 53 54 52 41 37 41 45 45 45 38 33 25 19 27 36 43 55 55 56 56 57 53 46 40 35 29 24 28 27 25 26 29 34 42 41 41 43 38 37 34 29
51 55 56 55 49 42 45 48 47 44 41 38 30 28 23 34 44 54 66 66 69 67 67 62 51 41 34 31 32 30 27 25 25 26 28 33 37 42 60 36 46 36 45
54 58 59 54 44 42 45 47 49 46 39 34 32 32 29 42 49 62 72 77 76 74 74 73 55 41 33 31 32 32 29 28 28 27 28 28 29 34 49 73 85 84 100
58 61 52 40 42 44 46 50 50 47 39 46 51 47 47 54 67 79 85 85 85 83 82 81 62 47 38 33 33 33 30 29 29 29 30 30 29 29 30 43 47 77 100
61 53 42 40 36 40 44 50 53 51 54 61 64 63 65 68 80 88 100 96 96 90 88 85 71 55 48 45 39 35 33 32 32 33 32 32 31 31 32 33 36 40 52
49 41 37 36 38 41 46 53 56 61 66 71 75 79 82 78 86 98 100 98 96 94 92 88 76 58 48 44 41 37 37 36 36 36 36 35 35 36 36 36 37 37 38
56 57 56 52 52 52 58 60 63 69 72 76 83 90 90 83 98 100 99 100 98 97 95 90 78 58 44 41 38 38 40 40 40 40 40 41 40 41 42 43 43 43 44
60 58 56 58 60 62 64 65 66 69 74 78 84 96 87 98 99 96 100 100 100 99 97 94 81 57 44 42 40 42 43 44 45 45 46 47 47 48 48 48 48 49 59
58 58 60 63 66 68 69 70 71 71 77 82 95 88 89 100 100 99 100 99 99 98 96 94 78 52 42 41 43 45 46 48 49 51 52 53 53 53 54 54 54 55 58
56 57 60 62 63 66 70 72 73 78 87 90 84 90 94 98 98 98 97 97 97 97 96 92 66 45 43 44 47 49 50 52 53 55 57 59 60 60 60 61 62 63 68
57 59 62 64 64 70 74 78 80 81 82 88 91 93 96 98 97 97 97 97 98 97 96 74 46 43 43 48 50 52 54 56 58 59 61 63 65 66 67 68 69 71 79
58 59 54 47 55 65 72 75 75 83 90 95 98 98 96 97 97 96 97 98 99 96 70 43 42 44 50 52 54 56 58 59 62 62 64 66 68 70 72 76 78 81 82
56 47 42 51 64 74 82 79 87 92 95 98 96 95 96 97 97 99 100 100 92 54 40 42 44 50 53 56 58 61 63 65 66 67 68 70 70 72 76 83 85 87 89
48 43 53 69 83 88 85 88 93 95 96 95 94 94 97 99 100 100 97 64 41 39 42 46 52 54 56 60 62 66 68 70 71 72 72 73 74 77 85 93 95 95 100
Wind_Speed
9 8 6 3 2 3 4 4 5 6 7 8 10 11 12 14 16 17 18 19 20 20 21 22 23 22 22 22 21 19 14 7 5 10 11 13 12 13 13 12 11 10 11
11 8 5 3 2 3 3 4 5 6 7 7 9 10 12 14 16 17 18 19 20 21 22 22 24 24 24 23 21 19 17 13 10 10 10 13 15 16 17 16 17 17 17
12 9 6 5 3 3 4 5 6 6 7 8 8 10 12 15 16 17 18 18 19 20 21 23 24 24 24 24 23 20 18 16 14 13 12 11 13 13 14 16 17 18 18
14 11 9 7 5 4 5 6 6 7 7 8 9 10 12 13 15 17 17 17 18 19 19 21 23 24 24 23 22 22 20 17 16 15 15 15 16 16 14 12 14 18 17
16 13 11 9 7 5 5 6 6 7 8 9 10 10 11 12 15 16 17 17 18 19 20 21 23 23 23 23 22 21 19 19 19 19 19 19 20 19 22 20 14 7 12
18 14 12 10 8 7 7 7 8 8 9 9 10 10 11 13 14 15 15 17 18 19 20 20 20 21 22 22 22 21 21 21 21 21 20 21 21 19 18 17 20 16 7
18 15 14 12 10 9 9 9 8 9 9 9 9 9 10 11 13 14 15 16 17 19 19 20 20 20 20 20 20 20 20 21 22 20 20 21 21 21 18 15 14 17 15
18 19 16 13 11 11 11 9 9 9 8 8 8 8 8 9 11 12 14 15 16 17 18 18 19 19 20 19 19 19 20 21 23 22 21 19 18 17 16 15 11 9 11
20 20 18 14 12 12 11 10 9 8 7 6 7 7 8 7 8 8 10 12 13 14 15 17 17 17 18 19 19 19 19 21 21 20 18 16 15 14 14 12 14 12 7
23 20 17 14 12 11 11 10 9 8 6 5 5 5 5 6 5 6 8 10 11 12 13 13 17 17 18 18 18 18 18 19 18 16 16 16 16 17 17 18 18 18 15
21 20 18 15 13 12 11 11 9 8 6 5 3 3 3 4 5 6 6 8 10 11 10 11 12 14 17 19 18 17 17 16 16 16 16 17 18 19 20 21 20 19 19
22 20 19 17 16 14 12 12 10 9 7 4 2 2 2 2 3 5 7 8 9 9 11 11 12 14 14 17 16 15 15 16 15 16 16 17 18 20 20 19 18 19 18
22 20 19 17 16 15 14 13 11 9 7 5 2 1 1 1 2 4 5 5 6 8 10 11 13 14 15 15 14 14 13 14 15 15 15 16 16 16 14 13 13 13 14
22 20 19 18 18 16 15 13 11 9 8 6 4 3 2 2 1 2 3 5 6 9 10 12 14 15 15 14 13 14 14 14 14 14 14 15 15 14 14 15 14 14 12
20 19 19 19 19 17 15 12 10 9 7 6 5 4 4 4 4 3 2 4 6 9 12 13 13 14 15 15 15 14 13 12 12 12 12 13 14 14 14 14 13 13 12
20 19 20 20 19 17 15 12 11 9 7 6 5 4 4 4 4 5 5 5 7 10 12 14 15 16 16 16 15 15 14 14 13 14 14 14 14 15 16 15 15 13 12
16 18 19 19 18 17 15 14 11 9 7 6 6 5 5 6 6 5 5 7 8 11 13 15 16 17 16 15 15 15 14 14 15 14 14 15 15 15 16 15 15 15 14
13 14 16 16 16 15 14 12 12 10 7 6 7 7 8 8 9 8 9 10 11 12 14 15 16 17 17 16 16 14 13 14 14 15 15 15 15 15 15 15 15 16 16
12 11 13 13 13 13 12 12 12 12 11 10 10 10 10 10 10 10 12 13 13 13 15 15 17 17 17 16 15 14 14 15 15 15 15 15 15 16 15 15 15 15 14
12 10 12 13 14 14 14 14 14 14 14 14 14 13 12 12 13 12 14 15 15 14 15 16 17 18 17 16 14 14 15 15 16 15 15 16 16 16 16 16 16 15 13
14 13 13 13 14 14 15 15 15 15 15 15 14 13 11 11 12 13 16 17 16 15 17 17 18 18 17 15 14 14 14 15 15 15 15 16 16 16 16 15 15 15 14
14 13 13 13 13 15 15 15 15 14 14 13 12 10 10 11 14 15 14 14 15 17 18 19 19 18 16 14 15 15 15 15 15 16 16 16 16 17 16 15 15 14 13
14 14 14 14 13 13 13 12 12 11 10 10 10 10 11 13 14 13 13 15 17 18 19 19 18 16 14 14 14 14 15 15 16 16 16 17 17 17 16 15 14 13 12
13 13 12 12 11 10 10 9 9 9 10 10 11 11 12 12 13 14 15 17 18 19 18 17 15 14 14 14 14 14 15 15 16 17 17 17 18 18 16 14 12 11 12
12 11 11 10 10 10 9 8 8 8 9 10 11 11 11 12 13 15 17 18 18 17 16 14 13 13 13 13 13 14 14 16 17 17 18 18 18 17 14 12 11 11 12
11 11 11 11 10 9 8 8 9 9 10 10 10 10 11 13 15 17 17 17 16 15 13 12 12 12 12 13 13 14 15 15 16 17 17 18 16 14 12 10 10 10 11
Wind_Direction
208 205 197 182 98 62 63 65 67 64 59 56 53 51 53 51 48 45 46 45 44 42 44 42 42 39 41 43 42 44 44 54 32 28 40 40 35 40 28 16 16 26 40
200 192 185 181 126 91 84 85 82 75 66 62 59 56 58 58 53 50 47 45 45 43 43 45 44 42 42 41 42 43 48 53 47 42 46 55 51 53 49 43 40 35 35
196 193 189 185 155 114 102 97 93 87 77 67 65 61 59 59 54 50 48 47 46 44 42 43 44 42 43 42 41 40 43 46 52 56 49 42 47 47 54 51 46 48 51
194 190 188 185 164 132 115 110 102 92 83 79 72 65 63 61 59 53 49 48 49 47 44 44 43 41 41 41 41 42 42 45 44 44 46 46 42 36 38 33 35 40 43
194 191 183 175 162 148 134 123 110 99 93 87 79 73 70 68 63 58 53 50 49 46 43 42 41 39 38 38 38 39 39 40 41 40 38 32 32 28 26 23 20 344 5
192 188 184 176 166 157 149 134 120 107 95 88 86 81 73 67 63 58 54 51 51 50 47 45 42 39 37 35 35 35 36 39 39 37 32 31 27 24 23 20 26 32 16
185 196 187 178 172 164 155 143 129 113 102 96 90 82 72 65 61 55 50 48 47 47 46 44 43 41 38 35 33 33 34 37 38 36 32 28 24 23 19 17 18 25 25
194 193 187 180 176 166 159 148 136 123 112 102 91 81 71 64 57 51 47 44 42 42 42 42 40 38 37 36 33 32 32 32 33 30 27 25 23 20 19 19 9 3 10
194 190 185 182 177 170 166 156 145 135 125 110 94 79 69 64 56 51 50 48 45 44 44 37 39 36 34 32 30 31 33 34 29 25 23 21 22 23 26 32 36 33 6
191 187 183 182 179 178 173 165 157 146 135 119 99 82 63 54 57 49 52 47 41 39 37 38 24 27 24 26 26 26 24 27 24 21 18 19 22 25 27 33 36 37 33
185 184 185 183 183 182 178 172 164 156 149 134 111 84 55 38 35 38 43 41 41 35 34 30 24 16 9 14 14 17 19 19 17 16 18 21 21 22 23 25 27 29 30
183 185 186 187 189 187 183 180 174 173 169 154 136 85 41 19 13 16 29 31 36 24 22 19 7 4 3 2 6 10 8 7 7 9 11 16 20 22 22 20 17 18 18
185 189 191 194 195 191 188 185 184 188 192 192 196 231 298 337 2 14 24 30 28 20 19 12 2 358 358 356 359 1 0 360 2 1 4 6 7 9 11 14 17 11 9
190 193 197 200 197 192 190 192 196 203 209 219 234 250 250 252 312 351 2 15 15 11 7 2 357 354 354 356 353 353 355 356 357 356 356 355 353 354 356 358 0 2 3
195 200 203 203 201 198 198 200 204 206 217 227 246 253 247 249 263 281 337 7 1 0 358 355 348 348 352 353 352 352 353 353 352 352 352 350 348 348 349 350 350 352 353
199 205 207 203 201 202 204 205 205 212 219 227 242 242 248 252 251 281 308 326 339 343 345 345 346 348 348 348 349 348 348 350 350 349 349 348 347 345 344 344 343 344 343
208 209 205 205 205 206 206 207 209 213 219 230 239 251 267 265 251 265 253 292 309 324 333 338 340 343 343 343 343 342 342 343 344 345 345 345 344 343 342 341 340 340 340
193 202 209 208 208 208 208 211 212 219 230 241 248 258 269 263 260 266 257 283 297 314 324 329 332 335 336 334 333 334 334 337 340 341 341 342 343 343 342 340 338 336 336
189 196 198 200 203 204 207 212 219 225 234 245 252 260 268 256 261 269 256 274 286 301 313 319 324 327 328 327 327 329 332 334 336 337 338 339 340 340 340 338 335 334 333
196 196 194 196 201 208 216 225 232 238 243 248 254 261 252 237 245 265 266 268 275 289 307 313 319 322 323 322 323 325 328 330 331 333 335 337 339 339 338 336 335 334 332
200 200 203 211 220 229 236 242 246 248 249 249 256 252 246 248 254 260 262 266 271 288 304 310 314 316 317 318 318 321 322 324 326 329 332 334 336 337 336 333 331 330 328
201 208 218 230 236 237 239 239 238 241 245 247 239 238 245 251 253 255 262 264 275 291 301 307 309 311 312 314 316 318 320 322 324 327 329 331 332 332 332 332 331 329 328
209 218 225 232 231 225 222 230 236 237 232 227 234 248 257 258 255 259 265 272 284 294 300 303 305 307 308 310 312 316 318 320 322 324 325 327 327 327 326 326 326 327 326
215 225 233 229 222 219 218 222 223 224 231 239 250 258 260 256 255 264 272 279 287 294 298 300 302 304 306 310 313 315 317 320 322 322 323 322 322 320 318 320 322 324 330
226 231 225 217 213 214 218 223 226 233 241 246 257 255 251 254 263 271 277 284 290 293 295 297 300 303 307 310 312 315 317 319 320 320 319 318 316 313 309 311 313 317 325
228 219 212 211 213 217 225 231 238 246 248 250 250 253 259 266 273 279 284 287 289 291 293 296 300 304 307 310 313 316 317 317 317 317 316 314 311 305 298 300 305 314 319